Regional Weather Roundup
Issued by NWS

Home | Current Version | Previous Version | Text Only | Print | Product List | Glossary Off
Versions: 1 2 3 4 5 6 7 8 9 10 11 12 13 14 15 16 17 18 19 20 21 22 23 24 25 26 27 28 29 30 31 32 33 34 35 36 37 38 39 40 41 42 43 44 45 46 47 48 49 50

000
ASUS43 KLSX 261310
RWRMO

WEATHER SUMMARY FOR MISSOURI
NATIONAL WEATHER SERVICE SPRINGFIELD MO
800 AM CDT THU APR 26 2018

NOTE: "FAIR" INDICATES FEW OR NO CLOUDS BELOW 12,000 FEET WITH NO
       SIGNIFICANT WEATHER AND/OR OBSTRUCTIONS TO VISIBILITY.
       CURRENT SKY AND/OR WEATHER CONDITIONS ARE NOT AVAILABLE FOR
       CHILLICOTHE AND FARMINGTON.

MOZ001>031-035>038-043-044-053-054-261400-
...NORTHERN AND WESTERN MISSOURI...

CITY           SKY/WX    TMP DP  RH WIND       PRES   REMARKS
KANSAS CTY INT CLOUDY    43  39  86 W6        30.01R
KANSAS C DTWN  CLOUDY    45  42  89 CALM      30.02R
LEE`S SUMMIT   MOSUNNY   44  43  96 W5        30.02R
ST JOSEPH      CLOUDY    36  36 100 CALM      30.03R
CHILLICOTHE      N/A     39  38  96 CALM      30.01R
KIRKSVILLE     CLOUDY    48  41  76 NW3       29.98R

$$
MOZ066>068-077>081-088>096-101>105-261400-
...SOUTHWEST MISSOURI...

CITY           SKY/WX    TMP DP  RH WIND       PRES   REMARKS
SPRINGFIELD    CLOUDY    49  47  93 N8        29.98R FOG
JOPLIN         CLOUDY    49  47  93 N6        30.02R
BRANSON        CLOUDY    48  48 100 NW5       29.98R FOG

$$
MOZ032>034-039>042-045>050-055>058-069>072-261400-
...CENTRAL MISSOURI...

CITY           SKY/WX    TMP DP  RH WIND       PRES   REMARKS
COLUMBIA       CLOUDY    48  47  96 NW8       29.98R
JEFFERSON CITY MOSUNNY   49  47  93 NW6       29.99R
ROLLA          CLOUDY    47  45  93 NW7       29.97R FOG
SEDALIA        MOSUNNY   47  47 100 NW6       30.01R
WHITEMAN AFB   MOSUNNY   46  46 100 NW6       29.96R
WARRENSBURG    CLOUDY    45  43  93 CALM      30.01R
OSAGE BEACH    CLOUDY    48  47  96 CALM      29.99R FOG

$$
MOZ051-052-059>065-261400-
...EAST CENTRAL MISSOURI...

CITY           SKY/WX    TMP DP  RH WIND       PRES   REMARKS
ST LOUIS INTL  CLOUDY    52  43  71 E7        29.98R
SPIRIT OF STL  CLOUDY    53  45  74 CALM      29.96R
ST CHARLES     PTSUNNY   53  41  63 E7        29.97R

$$
MOZ072>076-082>087-097>100-106>115-261400-
...SOUTH CENTRAL AND SOUTHEAST MISSOURI...

CITY           SKY/WX    TMP DP  RH WIND       PRES   REMARKS
CAPE GIRARDEAU CLOUDY    56  48  74 NE8       29.90R
FARMINGTON     CLOUDY    51  49  92 N8        29.95R
POPLAR BLUFF   CLOUDY    56  53  90 N8        29.90R
WEST PLAINS    PTSUNNY   53  48  83 N10       29.94R

$$




USA.gov is the U.S. government's official web portal to all federal, state and local government web resources and services.